Date String (YYYY-MM-DD hh:mm:ss) UTC,Instrument flags,absolute air pressure of the measurement (hPa),sample flow rate (lpm),inlet stack bypass flow (lpm),air temperature of the measurement (°C),ambient temperature measured by the external sensor (°C),aerosol sample conditioner tube jacket temperature (°C),OPC LED temperature (°C),internal box temperature (°C),relative humidity of the measurement (%),span deviation,mass concentration of particles derived from Lorenz-Mie calculation of OPC scattering (μg/m³),mass concentration of particles derived from Lorenz-Mie calculation of OPC scattering (μg/m³),mass concentration of particles derived from Lorenz-Mie calculation of OPC scattering (μg/m³)
DateTimeUTC,F1_M11,P_M11,Q1_M11,Q2_M11,T1_M11,T2_M11,T3_M11,T4_M11,T5_M11,U1_M11,ZSPAN_M11,X0_M11,X2_M11,X1_M11
2024-04-07 16:00:00,SystemResetWarning,0819.2,5.00,000.00,018.7,018.0,000.0,027.3,020.2,009.8,0000.0,0005.23,0001.26,0000.60
2024-04-07 16:01:00,SystemResetWarning,0819.1,5.00,000.00,018.6,017.8,000.0,027.3,020.1,009.9,0000.0,0005.05,0001.31,0000.61
2024-04-07 16:02:00,SystemResetWarning,0819.1,5.02,000.00,018.6,017.7,000.0,027.2,020.1,009.8,0000.0,0004.82,0001.30,0000.62
2024-04-07 16:03:00,SystemResetWarning,0819.2,5.01,000.00,018.5,017.6,000.0,027.2,020.0,009.9,0000.0,0005.59,0001.35,0000.62
2024-04-07 16:04:00,SystemResetWarning,0819.0,4.99,000.00,018.5,017.5,000.0,027.2,020.0,009.9,0000.0,0006.27,0001.37,0000.63
2024-04-07 16:05:00,SystemResetWarning,0819.1,5.00,000.00,018.4,017.5,000.0,027.2,020.0,009.9,0000.0,0006.24,0001.35,0000.64
2024-04-07 16:06:00,SystemResetWarning,0819.1,5.00,000.00,018.4,017.4,000.0,027.2,020.0,009.9,0000.0,0006.18,0001.34,0000.64
2024-04-07 16:07:00,SystemResetWarning,0819.1,5.00,000.00,018.4,017.4,000.0,027.2,020.0,010.0,0000.0,0005.86,0001.31,0000.63
2024-04-07 16:08:00,SystemResetWarning,0819.1,5.00,000.00,018.4,017.4,000.0,027.2,020.1,010.0,0000.0,0005.47,0001.28,0000.63
2024-04-07 16:09:00,SystemResetWarning,0819.3,5.02,000.00,018.5,018.3,000.0,027.2,020.6,009.9,0000.0,0005.60,0001.28,0000.63
2024-04-07 16:10:00,SystemResetWarning,0819.2,4.99,000.00,018.8,019.4,000.0,027.3,021.3,009.6,0000.0,0005.87,0001.23,0000.62
2024-04-07 16:11:00,SystemResetWarning,0819.1,4.99,000.00,019.0,019.5,000.0,027.3,021.3,009.4,0000.0,0005.37,0001.23,0000.61
2024-04-07 16:12:00,SystemResetWarning,0819.1,4.99,000.00,019.0,019.2,000.0,027.3,021.1,009.5,0000.0,0005.53,0001.25,0000.62
2024-04-07 16:13:00,SystemResetWarning,0819.0,5.00,000.00,019.0,018.9,000.0,027.3,020.9,009.4,0000.0,0005.49,0001.23,0000.61
2024-04-07 16:14:00,SystemResetWarning,0819.0,5.00,000.00,019.0,018.7,000.0,027.3,020.7,009.7,0000.0,0006.61,0001.22,0000.61
2024-04-07 16:15:00,SystemResetWarning,0818.8,5.00,000.00,018.9,018.6,000.0,027.3,020.6,009.6,0000.0,0006.65,0001.19,0000.61
2024-04-07 16:16:00,SystemResetWarning,0818.6,5.01,000.00,018.9,018.4,000.0,027.3,020.5,009.5,0000.0,0006.67,0001.17,0000.60
2024-04-07 16:17:00,SystemResetWarning,0818.7,5.01,000.00,018.8,018.2,000.0,027.3,020.4,009.4,0000.0,0006.55,0001.13,0000.59
2024-04-07 16:18:00,SystemResetWarning,0818.7,5.00,000.00,018.8,018.1,000.0,027.3,020.3,009.5,0000.0,0006.68,0001.15,0000.59
2024-04-07 16:19:00,SystemResetWarning,0818.7,5.00,000.00,018.7,018.0,000.0,027.2,020.2,009.5,0000.0,0006.67,0001.22,0000.61
2024-04-07 16:20:00,SystemResetWarning,0818.7,4.99,000.00,018.7,017.9,000.0,027.2,020.2,009.4,0000.0,0006.55,0001.25,0000.61
2024-04-07 16:21:00,SystemResetWarning,0818.8,5.00,000.00,018.6,017.8,000.0,027.2,020.1,009.3,0000.0,0007.06,0001.24,0000.61
2024-04-07 16:22:00,SystemResetWarning,0818.6,5.00,000.00,018.6,017.7,000.0,027.2,020.1,009.6,0000.0,0007.26,0001.21,0000.61
2024-04-07 16:23:00,SystemResetWarning,0818.6,5.00,000.00,018.5,017.6,000.0,027.2,020.0,009.7,0000.0,0007.18,0001.18,0000.60
2024-04-07 16:24:00,SystemResetWarning,0818.6,5.00,000.00,018.5,017.5,000.0,027.2,020.0,009.7,0000.0,0007.47,0001.24,0000.61
2024-04-07 16:25:00,SystemResetWarning,0818.8,5.01,000.00,018.5,017.5,000.0,027.2,020.0,009.6,0000.0,0006.95,0001.26,0000.61
2024-04-07 16:26:00,SystemResetWarning,0818.7,5.00,000.00,018.4,017.4,000.0,027.2,020.0,009.8,0000.0,0006.36,0001.34,0000.61
2024-04-07 16:27:00,SystemResetWarning,0818.9,5.00,000.00,018.4,017.4,000.0,027.1,020.0,009.7,0000.0,0006.21,0001.38,0000.63
2024-04-07 16:28:00,SystemResetWarning,0819.1,5.01,000.00,018.4,017.3,000.0,027.1,020.0,009.6,0000.0,0006.26,0001.40,0000.63
2024-04-07 16:29:00,SystemResetWarning,0819.0,5.00,000.00,018.4,017.5,000.0,027.1,020.1,009.8,0000.0,0006.16,0001.38,0000.63
2024-04-07 16:30:00,SystemResetWarning,0818.8,5.00,000.00,018.6,018.6,000.0,027.2,020.8,009.6,0000.0,0006.04,0001.32,0000.62
2024-04-07 16:31:00,SystemResetWarning,0819.0,4.99,000.00,018.9,019.6,000.0,027.3,021.4,009.3,0000.0,0005.88,0001.25,0000.60
2024-04-07 16:32:00,SystemResetWarning,0819.1,4.98,000.00,019.1,019.5,000.0,027.3,021.3,009.1,0000.0,0005.04,0001.25,0000.61
2024-04-07 16:33:00,SystemResetWarning,0819.1,5.00,000.00,019.1,019.3,000.0,027.3,021.0,009.2,0000.0,0004.26,0001.28,0000.62
2024-04-07 16:34:00,SystemResetWarning,0818.9,5.01,000.00,019.0,019.0,000.0,027.3,020.8,009.2,0000.0,0004.19,0001.29,0000.61
2024-04-07 16:35:00,SystemResetWarning,0818.7,5.01,000.00,019.0,018.8,000.0,027.3,020.7,009.1,0000.0,0003.82,0001.25,0000.60
2024-04-07 16:36:00,SystemResetWarning,0818.8,5.01,000.00,018.9,018.6,000.0,027.3,020.6,009.1,0000.0,0002.76,0001.21,0000.59
2024-04-07 16:37:00,SystemResetWarning,0819.0,5.00,000.00,018.9,018.4,000.0,027.3,020.5,009.1,0000.0,0002.73,0001.18,0000.60
2024-04-07 16:38:00,SystemResetWarning,0818.9,5.00,000.00,018.8,018.2,000.0,027.3,020.3,009.0,0000.0,0002.65,0001.16,0000.59
2024-04-07 16:39:00,SystemResetWarning,0819.0,5.00,000.00,018.8,018.1,000.0,027.2,020.2,009.2,0000.0,0002.89,0001.15,0000.59
2024-04-07 16:40:00,SystemResetWarning,0819.0,5.00,000.00,018.7,018.0,000.0,027.2,020.2,009.3,0000.0,0002.91,0001.13,0000.59
2024-04-07 16:41:00,SystemResetWarning,0818.9,5.00,000.00,018.7,017.9,000.0,027.2,020.2,009.3,0000.0,0003.56,0001.19,0000.59
2024-04-07 16:42:00,SystemResetWarning,0819.0,5.00,000.00,018.6,017.8,000.0,027.2,020.1,009.4,0000.0,0003.69,0001.24,0000.60
2024-04-07 16:43:00,SystemResetWarning,0818.9,5.00,000.00,018.6,017.7,000.0,027.1,020.0,009.5,0000.0,0003.62,0001.26,0000.59
2024-04-07 16:44:00,SystemResetWarning,0819.0,4.99,000.00,018.5,017.7,000.0,027.1,020.0,009.3,0000.0,0003.75,0001.26,0000.59
2024-04-07 16:45:00,SystemResetWarning,0819.1,4.99,000.00,018.5,017.6,000.0,027.1,020.0,009.5,0000.0,0003.77,0001.26,0000.60
2024-04-07 16:46:00,SystemResetWarning,0819.0,5.00,000.00,018.5,017.6,000.0,027.1,020.0,009.5,0000.0,0003.87,0001.26,0000.60
2024-04-07 16:47:00,SystemResetWarning,0819.1,5.02,000.00,018.4,017.5,000.0,027.1,020.0,009.4,0000.0,0004.50,0001.26,0000.62
2024-04-07 16:48:00,SystemResetWarning,0819.2,5.00,000.00,018.4,017.5,000.0,027.1,020.0,009.4,0000.0,0004.76,0001.23,0000.62
2024-04-07 16:49:00,SystemResetWarning,0818.9,4.99,000.00,018.4,017.4,000.0,027.1,020.0,009.3,0000.0,0004.75,0001.18,0000.62
2024-04-07 16:50:00,SystemResetWarning,0819.2,4.99,000.00,018.4,017.4,000.0,027.1,020.0,009.0,0000.0,0004.89,0001.23,0000.63
2024-04-07 16:51:00,SystemResetWarning,0819.2,5.00,000.00,018.4,017.4,000.0,027.1,020.0,009.3,0000.0,0004.74,0001.20,0000.62
2024-04-07 16:52:00,SystemResetWarning,0819.0,5.02,000.00,018.4,017.3,000.0,027.1,020.0,009.4,0000.0,0004.08,0001.15,0000.62
2024-04-07 16:53:00,SystemResetWarning,0819.1,5.00,000.00,018.4,017.5,000.0,027.1,020.1,009.4,0000.0,0004.11,0001.15,0000.63
2024-04-07 16:54:00,SystemResetWarning,0819.1,5.00,000.00,018.6,018.6,000.0,027.2,020.8,009.4,0000.0,0004.13,0001.16,0000.64
2024-04-07 16:55:00,SystemResetWarning,0819.2,5.00,000.00,018.9,019.6,000.0,027.2,021.4,009.1,0000.0,0004.16,0001.16,0000.64
2024-04-07 16:56:00,SystemResetWarning,0819.1,4.99,000.00,019.1,019.6,000.0,027.2,021.3,009.0,0000.0,0004.17,0001.10,0000.64
2024-04-07 16:57:00,SystemResetWarning,0819.1,5.00,000.00,019.1,019.3,000.0,027.2,021.0,009.1,0000.0,0004.01,0001.08,0000.65
2024-04-07 16:58:00,SystemResetWarning,0819.1,5.01,000.00,019.0,019.0,000.0,027.2,020.9,009.1,0000.0,0003.35,0001.07,0000.64
2024-04-07 16:59:00,SystemResetWarning,0819.1,5.01,000.00,019.0,018.8,000.0,027.3,020.7,009.2,0000.0,0002.87,0001.07,0000.63
